AirNav   Everest Fuels
 
 1405 users online  

5AL7 John H Hataway Airport
Kinston, Alabama, USA

GOING TO KINSTON?


FAA INFORMATION EFFECTIVE 10 OCTOBER 2019

Location

FAA Identifier: 5AL7
Lat/Long: 31-15-00.0000N 086-10-00.0000W
31-15.000000N 086-10.000000W
31.2500000,-86.1666667
(estimated)
Elevation: 300 ft. / 91 m (estimated)
Variation: 01W (1995)
From city: 3 miles N of KINSTON, AL
Time zone: UTC -5 (UTC -6 during Standard Time)
Zip code: 36453

Airport Operations

Airport use: Private use. Permission required prior to landing
Activation date: 10/1999
Control tower: no
ARTCC: JACKSONVILLE CENTER
FSS: ANNISTON FLIGHT SERVICE STATION
Attendance: UNATNDD
Segmented circle: no

Airport Communications

WX ASOS at 79J (12 nm W): 134.875 (334-222-9770)
WX AWOS-3PT at EDN (14 nm E): 118.9 (334-347-3524)

Nearby radio navigation aids

VOR radial/distance  VOR name  Freq  Var
EDNr261/(13.8)ENTERPRISE VOR116.6003W
OZRr270/22.6CAIRNS VOR/DME111.2003W
HEYr257/(27.4)HANCHEY VOR110.6003W
CEWr043/36.6CRESTVIEW VORTAC115.9003E
RRSr265/37.8WIREGRASS VORTAC111.6002E

 
NDB name  Hdg/Dist  Freq  Var  ID
BOLL WEEVIL243/10.935203WBVG -... ...- --.
JUDD108/12.026402WJUY .--- ..- -.--
LOWE256/22.726903WLOR .-.. --- .-.
HANCHEY257/27.422103WHYE .... -.-- .
BLOOD189/35.036504WTOI - --- ..

Airport Services

Runway Information

Runway 18/36

Dimensions: 1800 x 60 ft. / 549 x 18 m
Surface: turf
RUNWAY 18  RUNWAY 36
Traffic pattern: leftleft

Airport Ownership and Management from official FAA records

Ownership: Privately-owned
Owner: JOHN H. HATAWAY / DOMINY HATAWAY
991 C.R. 452
KINSTON, AL 36453
Phone 334-565-9877
CELL PHONE 334-494-9345
Manager: GREGORY L. HATAWAY
1207 C.R. 452
KINSTON, AL 36453
Phone 334-565-9877
CELL PHONE 334-494-9345

Airport Operational Statistics

Aircraft based on the field: 1
Single engine airplanes: 1
    

Additional Remarks

A58-36 5 FT FENCE NORTH OF RWY.
199 FT UNLIT CELL TOWER 1 MILE NE OF RY.
RWY 18 5 FT FENCE EAST OF RWY AND 5 FT FENCE SOUTH OF RWY. RWY 36 5 FT FENCE NORTH OF RWY.
FOR CD CTC CAIRNS APCH AT 334-255-8402 OR 334-255-8460, WHEN APCH CLSD CTC JACKSONVILLE ARTCC AT 904-845-1592.

Instrument Procedures

There are no published instrument procedures at 5AL7.

Some nearby airports with instrument procedures:

79J - South Alabama Regional Airport at Bill Benton Field (12 nm W)
KEDN - Enterprise Municipal Airport (14 nm E)
0J4 - Florala Municipal Airport (15 nm SW)
33J - Geneva Municipal Airport (19 nm SE)
KLOR - Lowe Army Heliport (Fort Rucker) (22 nm E)
 
Loc | Ops | Rwys | IFR | FBO | Links
Com | Nav | Svcs | Stats | Notes
Area around 5AL7 (John H Hataway Airport)
 
Road maps at: MapQuest Bing Google
 
Aerial photo
WARNING: Photo may not be current or correct
Aerial photo of 5AL7 (John H Hataway Airport)
Photo by Arend van Beek
Photo taken 16-Feb-2009

Do you have a better or more recent aerial photo of John H Hataway Airport that you would like to share? If so, please send us your photo.

 
Sectional chart

 
Airport distance calculator
Flying to John H Hataway Airport? Find the distance to fly.

From to 5AL7

Sunrise and sunset
Times for 16-Oct-2019
 Local
(UTC-5)
 Zulu
(UTC)
Morning civil twilight06:2511:25
Sunrise06:4911:49
Sunset18:1123:11
Evening civil twilight18:3623:36

Current date and time
Zulu (UTC)  16-Oct-2019 17:12:08
Local (UTC-5)  16-Oct-2019 12:12:08
 
METAR
K79J 
13nm W 
161656Z AUTO 30007KT 10SM BKN015 OVC021 23/20 A2993 RMK AO2 RAB01E42 SLP132 P0003 T02280200
K0J4 
15nm SW 
161658Z AUTO VRB04KT 8SM -RA FEW012 OVC019 22/20 A2995 RMK AO2 SLP137 P0002 T02220200 $
KSXS 
18nm NE 
161658Z AUTO 34007KT 5SM -RA BR FEW003 BKN011 OVC036 21/20 A2992 RMK AO2 RAB27 BKN V OVC SLP131 P0001 T02090198
KLOR 
22nm E 
161702Z AUTO 29005KT 3SM -RA BR BKN014 BKN021 OVC050 22/21 A2992 RMK AO2 CIG 012V016 BKN014 V OVC PRESRR SLP113
KOZR 
23nm E 
161656Z AUTO 29008G15KT 10SM -RA BKN015 OVC020 22/20 A2992 RMK AO2 DZB39E40RAB40 SLP132 P0000 T02210200
TAF
KOZR 
23nm E 
161600Z 1616/1722 27010G18KT 8000 -SHRA OVC015 QNH2988INS BECMG 1620/1621 32010G18KT 9999 NSW BKN030 QNH2987INS BECMG 1621/1622 32010KT 9999 FEW030 SCT250 QNH2988INS TX25/1620Z TN12/1712Z
NOTAMs
Click for the latest NOTAMs
NOTAMs are issued by the DoD/FAA and will open in a separate window not controlled by AirNav.

 

 
 

Would you like to see your business listed on this page?

 If your business provides an interesting product or service to pilots, flight crews, aircraft, or users of the John H Hataway Airport, you should consider listing it here.  To start the listing process, click on the button below
 
Add a business
 

Other Pages about John H Hataway Airport

Update a link
 
Copyright © AirNav, LLC. All rights reserved. Privacy Policy  Contact